Estación de Polizones INIA
Ultimos registro cada 15 minutos 55
| N° | Estación | Fecha / Hora | Temperatura | Humedad | Lluvia | Velocidad | Dirección | Radiación | Presion |
| 55 | Polizones INIA | 06-05-2026 13:30 | 10,5 | 77,3 | 0 | 2,2 | 168 | 294 | 997 |
| 54 | Polizones INIA | 06-05-2026 13:15 | 10,3 | 78,1 | 0 | 1,5 | 165 | 216 | 997 |
| 53 | Polizones INIA | 06-05-2026 13:00 | 10,1 | 78,7 | 0 | 1,4 | 165 | 174 | 996 |
| 52 | Polizones INIA | 06-05-2026 12:45 | 10 | 77,5 | 0 | 1,7 | 158 | 203 | 996 |
| 51 | Polizones INIA | 06-05-2026 12:30 | 9,9 | 79,3 | 0 | 2,8 | 172 | 227 | 996 |
| 50 | Polizones INIA | 06-05-2026 12:15 | 10 | 79,5 | 0 | 3 | 170 | 291 | 996 |
| 49 | Polizones INIA | 06-05-2026 12:00 | 9,8 | 80,3 | 0 | 3,5 | 170 | 340 | 996 |
| 48 | Polizones INIA | 06-05-2026 11:45 | 9,5 | 82,8 | 0 | 3 | 172 | 346 | 996 |
| 47 | Polizones INIA | 06-05-2026 11:30 | 9 | 84,3 | 0 | 2,8 | 172 | 185 | 996 |
| 46 | Polizones INIA | 06-05-2026 11:15 | 9 | 85,1 | 0 | 2,7 | 170 | 186 | 995 |
| 45 | Polizones INIA | 06-05-2026 11:00 | 8,8 | 84 | 0 | 3,2 | 174 | 184 | 995 |
| 44 | Polizones INIA | 06-05-2026 10:45 | 8,6 | 86,3 | 0 | 2,5 | 174 | 120 | 995 |
| 43 | Polizones INIA | 06-05-2026 10:30 | 8,4 | 87,7 | 0 | 2,8 | 175 | 75 | 995 |
| 42 | Polizones INIA | 06-05-2026 10:15 | 8,4 | 89 | 0 | 2,4 | 171 | 119 | 995 |
| 41 | Polizones INIA | 06-05-2026 10:00 | 8,1 | 90,5 | 0 | 1,7 | 177 | 116 | 995 |
| 40 | Polizones INIA | 06-05-2026 09:45 | 7,9 | 91,5 | 0 | 1,6 | 178 | 77 | 995 |
| 39 | Polizones INIA | 06-05-2026 09:30 | 7,8 | 91,8 | 0 | 1,5 | 180 | 68 | 994 |
| 38 | Polizones INIA | 06-05-2026 09:15 | 7,6 | 92,3 | 0 | 1,7 | 174 | 43 | 994 |
| 37 | Polizones INIA | 06-05-2026 09:00 | 7,4 | 93 | 0 | 2 | 179 | 29 | 994 |
| 36 | Polizones INIA | 06-05-2026 08:45 | 7,3 | 94 | 0 | 1,7 | 176 | 22 | 994 |
| 35 | Polizones INIA | 06-05-2026 08:30 | 7,3 | 94,2 | 0 | 1,7 | 179 | 7 | 993 |
| 34 | Polizones INIA | 06-05-2026 08:15 | 7,2 | 94,8 | 0 | 1,8 | 178 | 4 | 993 |
| 33 | Polizones INIA | 06-05-2026 08:00 | 7,2 | 95,5 | 0 | 1,6 | 182 | 2 | 993 |
| 32 | Polizones INIA | 06-05-2026 07:45 | 7,2 | 96 | 0 | 1,7 | 183 | 1 | 993 |
| 31 | Polizones INIA | 06-05-2026 07:30 | 7,2 | 96,7 | 0,1 | 1,4 | 187 | 0 | 993 |
| 30 | Polizones INIA | 06-05-2026 07:15 | 7,2 | 97,2 | 0 | 1,1 | 175 | 0 | 993 |
| 29 | Polizones INIA | 06-05-2026 07:00 | 7,2 | 97,3 | 0 | 1,2 | 181 | 0 | 993 |
| 28 | Polizones INIA | 06-05-2026 06:45 | 7,4 | 97,3 | 0 | 1,8 | 183 | 0 | 993 |
| 27 | Polizones INIA | 06-05-2026 06:30 | 7,4 | 97,2 | 0 | 1,3 | 172 | 0 | 993 |
| 26 | Polizones INIA | 06-05-2026 06:15 | 7,5 | 97,3 | 0 | 1,9 | 169 | 0 | 992 |
| 25 | Polizones INIA | 06-05-2026 06:00 | 7,6 | 97,3 | 0 | 0,8 | 173 | 0 | 992 |
| 24 | Polizones INIA | 06-05-2026 05:45 | 7,7 | 97 | 0 | 0,8 | 176 | 0 | 992 |
| 23 | Polizones INIA | 06-05-2026 05:30 | 7,6 | 96,8 | 0,1 | 1,1 | 182 | 0 | 992 |
| 22 | Polizones INIA | 06-05-2026 05:15 | 7,6 | 97,3 | 0 | 1,1 | 186 | 0 | 992 |
| 21 | Polizones INIA | 06-05-2026 05:00 | 7,7 | 97,6 | 0 | 0,8 | 171 | 0 | 992 |
| 20 | Polizones INIA | 06-05-2026 04:45 | 7,7 | 97,7 | 0,1 | 0,8 | 185 | 0 | 992 |
| 19 | Polizones INIA | 06-05-2026 04:30 | 7,8 | 97,7 | 0,4 | 0,7 | 187 | 0 | 992 |
| 18 | Polizones INIA | 06-05-2026 04:15 | 7,9 | 97,9 | 0,5 | 1,2 | 176 | 0 | 992 |
| 17 | Polizones INIA | 06-05-2026 04:00 | 8 | 97,8 | 0,4 | 0,5 | 145 | 0 | 992 |
| 16 | Polizones INIA | 06-05-2026 03:45 | 8,1 | 97,7 | 0,5 | 0,2 | 171 | 0 | 992 |
| 15 | Polizones INIA | 06-05-2026 03:30 | 8,2 | 97,8 | 0,2 | 0,5 | 178 | 0 | 992 |
| 14 | Polizones INIA | 06-05-2026 03:15 | 8,3 | 97,8 | 0,1 | 0,5 | 169 | 0 | 992 |
| 13 | Polizones INIA | 06-05-2026 03:00 | 8,4 | 98 | 0,3 | 0,4 | 170 | 0 | 992 |
| 12 | Polizones INIA | 06-05-2026 02:45 | 8,4 | 97,9 | 0,1 | 0,4 | 171 | 0 | 992 |
| 11 | Polizones INIA | 06-05-2026 02:30 | 8,4 | 98,1 | 0,3 | 0,3 | 181 | 0 | 992 |
| 10 | Polizones INIA | 06-05-2026 02:15 | 8,4 | 98,1 | 0,8 | 0,3 | 156 | 0 | 992 |
| 9 | Polizones INIA | 06-05-2026 02:00 | 8,4 | 98,2 | 0,9 | 0,2 | 176 | 0 | 992 |
| 8 | Polizones INIA | 06-05-2026 01:45 | 8,3 | 98,1 | 0,4 | 0,2 | 160 | 0 | 992 |
| 7 | Polizones INIA | 06-05-2026 01:30 | 8,2 | 98,1 | 0,6 | 0,5 | 169 | 0 | 992 |
| 6 | Polizones INIA | 06-05-2026 01:15 | 8,2 | 98,2 | 0,2 | 0,5 | 190 | 0 | 992 |
| 5 | Polizones INIA | 06-05-2026 01:00 | 8,2 | 98,2 | 0,9 | 0,1 | 190 | 0 | 992 |
| 4 | Polizones INIA | 06-05-2026 00:45 | 8,2 | 98,3 | 1 | 0,3 | 159 | 0 | 992 |
| 3 | Polizones INIA | 06-05-2026 00:30 | 8,2 | 98,3 | 1,4 | 0,3 | 152 | 0 | 992 |
| 2 | Polizones INIA | 06-05-2026 00:15 | 8,3 | 98,2 | 0,9 | 0,3 | 173 | 0 | 992 |
| 1 | Polizones INIA | 06-05-2026 00:00 | 8,3 | 98,2 | 0,4 | 0,4 | 148 | 0 | 992 |